                   Peri.   96.20045     +0.09688725     +0.96018716

                   Node   195.19602     -0.34451334     +0.27933642

e   1.0            Incl.   91.61482     +0.93376840     +0.00343257

From 32 observations 2005 Jan. 16-17.

 

Date/        TT  R.A.(2000) Decl.     Delta   r     Daily motion  Mag.  Moon Age

              h    h  m       。  ,                      ,  / PA 。  m1      。

2005 Jan. 20 18  14 30.30  +19 50.7   4.805  4.947    13.4 /  25  16.9  126  .81

          21 18  14 30.70  +20 02.8   4.785  4.942    13.5 /  24  16.8  117  .88

          22 18  14 31.09  +20 15.2   4.765  4.936    13.6 /  23  16.8  107  .93

          23 18  14 31.48  +20 27.7   4.745  4.930    13.7 /  22  16.8   98  .97

          24 18  14 31.85  +20 40.4   4.725  4.924    13.8 /  22  16.8   88  .99

          25 18  14 32.21  +20 53.2   4.705  4.918    13.9 /  21  16.8   78 1.00

          26 18  14 32.56  +21 06.2   4.685  4.912    14.0 /  20  16.8   68  .98

          27 18  14 32.90  +21 19.4   4.666  4.907    14.1 /  19  16.8   59  .95

          28 18  14 33.23  +21 32.8   4.646  4.901    14.2 /  18  16.7   50  .90

          29 18  14 33.55  +21 46.3   4.627  4.895    14.3 /  17  16.7   43  .84

          30 18  14 33.85  +22 00.0   4.607  4.889    14.5 /  16  16.7   37  .75

          31 18  14 34.15  +22 13.9   4.588  4.883    14.6 /  16  16.7   35  .66

     Feb.  1 18  14 34.43  +22 27.9   4.569  4.878    14.7 /  15  16.7   37  .56

           2 18  14 34.70  +22 42.1   4.550  4.872    14.8 /  14  16.7   43  .45

           3 18  14 34.95  +22 56.5   4.532  4.866    14.9 /  13  16.7   51  .34

           4 18  14 35.20  +23 11.0   4.513  4.860    15.0 /  12  16.6   62  .24

           5 18  14 35.43  +23 25.7   4.495  4.855    15.2 /  11  16.6   73  .15

           6 18  14 35.65  +23 40.6   4.476  4.849    15.3 /  11  16.6   85  .07

           7 18  14 35.85  +23 55.6   4.458  4.843    15.4 /  10  16.6   97  .02

           8 18  14 36.04  +24 10.8   4.440  4.837    15.5 /   9  16.6  109  .00

           9 18  14 36.22  +24 26.1   4.423  4.832    15.6 /   8  16.6  120  .01

          10 18  14 36.38  +24 41.6   4.405  4.826    15.8 /   7  16.6  130  .05

          11 18  14 36.53  +24 57.3   4.387  4.820    15.9 /   7  16.5  137  .11

          12 18  14 36.66  +25 13.1   4.370  4.814    16.0 /   6  16.5  141  .19

          13 18  14 36.78  +25 29.0   4.353  4.809    16.1 /   5  16.5  141  .28

          14 18  14 36.88  +25 45.1   4.336  4.803    16.3 /   4  16.5  138  .37

          15 18  14 36.97  +26 01.3   4.320  4.797    16.4 /   3  16.5  131  .47

          16 18  14 37.04  +26 17.6   4.303  4.792    16.5 /   3  16.5  124  .57

          17 18  14 37.10  +26 34.1   4.287  4.786    16.6 /   2  16.5  115  .66

          18 18  14 37.14  +26 50.7   4.271  4.780    16.7 /   1  16.4  106  .75

          19 18  14 37.17  +27 07.4   4.255  4.775    16.9 /   0  16.4   97  .83

          20 18  14 37.18  +27 24.3   4.240  4.769    17.0 / 360  16.4   88  .89

          21 18  14 37.18  +27 41.3   4.224  4.763    17.1 / 359  16.4   79  .94

          22 18  14 37.15  +27 58.3   4.209  4.758    17.2 / 358  16.4   70  .98

          23 18  14 37.12  +28 15.5   4.194  4.752    17.3 / 358  16.4   62 1.00

          24 18  14 37.06  +28 32.8   4.180  4.746    17.4 / 357  16.4   54 1.00

          25 18  14 36.99  +28 50.2   4.165  4.741    17.5 / 356  16.4   48  .98

          26 18  14 36.90  +29 07.7   4.151  4.735    17.6 / 355  16.3   43  .94

          27 18  14 36.79  +29 25.3   4.137  4.729    17.7 / 355  16.3   42  .88

          28 18  14 36.67  +29 42.9   4.124  4.724    17.8 / 354  16.3   44  .80

     Mar.  1 18  14 36.53  +30 00.7   4.110  4.718    17.9 / 353  16.3   49  .71

NAKANO

         **** Don't distribute anyone except personal use only ****

                (C) Copyright 2005 OAA/ComputingSection

write mail from CFAD0::NAKANO on 2005-01-19 04:19:32(JST).

 



戻ります。